Time,TemperatureF,DewpointF,PressureIn,WindDirection,WindDirectionDegrees,WindSpeedMPH,WindSpeedGustMPH,Humidity,HourlyPrecipIn,Conditions,Clouds,dailyrainin,SolarRadiationWatts/m^2,SoftwareType,DateUTC
2013-01-10 00:01:00,32.0,32.0,-100.00,East,92,1.0,2.0,99,-99.99,,,0.01,0.000000,,2013-01-10 08:01:00,
2013-01-10 00:11:00,32.0,32.0,-100.00,East,92,1.0,2.0,99,-99.99,,,0.01,0.000000,,2013-01-10 08:11:00,
2013-01-10 00:42:00,31.0,31.0,-100.00,NNW,339,1.0,3.0,99,-99.99,,,0.01,0.000000,,2013-01-10 08:42:00,
2013-01-10 00:53:00,31.0,31.0,-100.00,NNW,339,1.0,3.0,99,-99.99,,,0.01,0.000000,,2013-01-10 08:53:00,
2013-01-10 01:02:00,31.0,31.0,-100.00,NNW,339,1.0,3.0,99,-99.99,,,0.01,0.000000,,2013-01-10 09:02:00,
2013-01-10 01:12:00,31.0,31.0,-100.00,NNW,339,1.0,3.0,99,-99.99,,,0.01,0.000000,,2013-01-10 09:12:00,
2013-01-10 01:42:00,30.0,30.0,-100.00,SW,216,1.0,2.0,99,-99.99,,,0.01,0.000000,,2013-01-10 09:42:00,
2013-01-10 01:52:00,30.0,30.0,-100.00,SW,216,1.0,2.0,99,-99.99,,,0.01,0.000000,,2013-01-10 09:52:00,
2013-01-10 02:02:00,30.0,30.0,-100.00,SW,216,1.0,2.0,99,-99.99,,,0.01,0.000000,,2013-01-10 10:02:00,
2013-01-10 02:11:00,30.0,30.0,-100.00,SW,216,1.0,2.0,99,-99.99,,,0.01,0.000000,,2013-01-10 10:11:00,
2013-01-10 02:42:00,31.0,30.0,-100.00,West,267,1.0,4.0,99,-99.99,,,0.01,0.000000,,2013-01-10 10:42:00,
2013-01-10 02:52:00,31.0,30.0,-100.00,West,267,1.0,4.0,99,-99.99,,,0.01,0.000000,,2013-01-10 10:52:00,
2013-01-10 03:02:00,31.0,30.0,-100.00,West,267,1.0,4.0,99,-99.99,,,0.01,0.000000,,2013-01-10 11:02:00,
2013-01-10 03:12:00,31.0,30.0,-100.00,West,267,1.0,4.0,99,-99.99,,,0.01,0.000000,,2013-01-10 11:12:00,
2013-01-10 03:42:00,30.0,29.0,-100.00,WNW,295,1.0,3.0,99,-99.99,,,0.01,0.000000,,2013-01-10 11:42:00,
2013-01-10 03:53:00,30.0,29.0,-100.00,WNW,295,1.0,3.0,99,-99.99,,,0.01,0.000000,,2013-01-10 11:53:00,
2013-01-10 04:02:00,30.0,29.0,-100.00,WNW,295,1.0,3.0,99,-99.99,,,0.01,0.000000,,2013-01-10 12:02:00,
2013-01-10 04:12:00,30.0,29.0,-100.00,WNW,295,1.0,3.0,99,-99.99,,,0.01,0.000000,,2013-01-10 12:12:00,
2013-01-10 04:42:00,31.0,30.0,-100.00,West,266,2.0,9.0,98,-99.99,,,0.01,0.000000,,2013-01-10 12:42:00,
2013-01-10 04:53:00,31.0,30.0,-100.00,West,266,2.0,9.0,98,-99.99,,,0.01,0.000000,,2013-01-10 12:53:00,
2013-01-10 05:02:00,31.0,30.0,-100.00,West,266,2.0,9.0,98,-99.99,,,0.01,0.000000,,2013-01-10 13:02:00,
2013-01-10 05:11:00,31.0,30.0,-100.00,West,266,2.0,9.0,98,-99.99,,,0.01,0.000000,,2013-01-10 13:11:00,
2013-01-10 05:42:00,30.0,29.0,-100.00,South,172,0.0,3.0,94,-99.99,,,0.01,0.000000,,2013-01-10 13:42:00,
2013-01-10 05:53:00,30.0,29.0,-100.00,South,172,0.0,3.0,94,-99.99,,,0.01,0.000000,,2013-01-10 13:53:00,
2013-01-10 06:02:00,30.0,29.0,-100.00,South,172,0.0,3.0,94,-99.99,,,0.01,0.000000,,2013-01-10 14:02:00,
2013-01-10 06:12:00,30.0,29.0,-100.00,South,172,0.0,3.0,94,-99.99,,,0.01,0.000000,,2013-01-10 14:12:00,
2013-01-10 06:43:00,30.0,29.0,-100.00,North,8,1.0,3.0,95,-99.99,,,0.01,0.000000,,2013-01-10 14:43:00,
2013-01-10 06:53:00,30.0,29.0,-100.00,North,8,1.0,3.0,95,-99.99,,,0.01,0.000000,,2013-01-10 14:53:00,
2013-01-10 07:03:00,30.0,29.0,-100.00,North,8,1.0,3.0,95,-99.99,,,0.01,0.000000,,2013-01-10 15:03:00,
2013-01-10 07:12:00,30.0,29.0,-100.00,North,8,1.0,3.0,95,-99.99,,,0.01,0.000000,,2013-01-10 15:12:00,
2013-01-10 07:43:00,29.0,28.0,-100.00,WSW,258,0.0,2.0,96,-99.99,,,0.01,0.000000,,2013-01-10 15:43:00,
2013-01-10 07:53:00,29.0,28.0,-100.00,WSW,258,0.0,2.0,96,-99.99,,,0.01,0.000000,,2013-01-10 15:53:00,
2013-01-10 08:02:00,29.0,28.0,-100.00,WSW,258,0.0,2.0,96,-99.99,,,0.01,0.000000,,2013-01-10 16:02:00,
2013-01-10 08:12:00,29.0,28.0,-100.00,WSW,258,0.0,2.0,96,-99.99,,,0.01,0.000000,,2013-01-10 16:12:00,
2013-01-10 08:42:00,29.0,29.0,-100.00,SW,222,1.0,3.0,96,-99.99,,,0.01,21.150000,,2013-01-10 16:42:00,
2013-01-10 08:53:00,29.0,29.0,-100.00,SW,222,1.0,3.0,96,-99.99,,,0.01,21.150000,,2013-01-10 16:53:00,
2013-01-10 09:02:00,29.0,29.0,-100.00,SW,222,1.0,3.0,96,-99.99,,,0.01,21.150000,,2013-01-10 17:02:00,
2013-01-10 09:12:00,29.0,29.0,-100.00,SW,222,1.0,3.0,96,-99.99,,,0.01,21.150000,,2013-01-10 17:12:00,
2013-01-10 09:42:00,31.0,30.0,-100.00,SSW,199,1.0,4.0,93,-99.99,,,0.01,84.029999,,2013-01-10 17:42:00,
2013-01-10 09:53:00,31.0,30.0,-100.00,SSW,199,1.0,4.0,93,-99.99,,,0.01,84.029999,,2013-01-10 17:53:00,
2013-01-10 10:03:00,31.0,30.0,-100.00,SSW,199,1.0,4.0,93,-99.99,,,0.01,84.029999,,2013-01-10 18:03:00,
2013-01-10 10:12:00,31.0,30.0,-100.00,SSW,199,1.0,4.0,93,-99.99,,,0.01,84.029999,,2013-01-10 18:12:00,
2013-01-10 10:43:00,33.0,30.0,-100.00,SW,219,0.0,3.0,88,-99.99,,,0.00,158.639999,,2013-01-10 18:43:00,
2013-01-10 10:53:00,33.0,30.0,-100.00,SW,219,0.0,3.0,88,-99.99,,,0.00,158.639999,,2013-01-10 18:53:00,
2013-01-10 11:02:00,33.0,30.0,-100.00,SW,219,0.0,3.0,88,-99.99,,,0.00,158.639999,,2013-01-10 19:02:00,
2013-01-10 11:12:00,33.0,30.0,-100.00,SW,219,0.0,3.0,88,-99.99,,,0.00,158.639999,,2013-01-10 19:12:00,
2013-01-10 11:43:00,39.0,30.0,-100.00,South,179,4.0,10.0,70,-99.99,,,0.00,286.829987,,2013-01-10 19:43:00,
2013-01-10 11:53:00,39.0,30.0,-100.00,South,179,4.0,10.0,70,-99.99,,,0.00,286.829987,,2013-01-10 19:53:00,
2013-01-10 12:02:00,39.0,30.0,-100.00,South,179,4.0,10.0,70,-99.99,,,0.00,286.829987,,2013-01-10 20:02:00,
2013-01-10 12:12:00,39.0,30.0,-100.00,South,179,4.0,10.0,70,-99.99,,,0.00,286.829987,,2013-01-10 20:12:00,
2013-01-10 12:42:00,41.0,28.0,-100.00,SSW,211,5.0,13.0,61,-99.99,,,0.00,522.289978,,2013-01-10 20:42:00,
2013-01-10 12:53:00,41.0,28.0,-100.00,SSW,211,5.0,13.0,61,-99.99,,,0.00,522.289978,,2013-01-10 20:53:00,
2013-01-10 13:03:00,41.0,28.0,-100.00,SSW,211,5.0,13.0,61,-99.99,,,0.00,522.289978,,2013-01-10 21:03:00,
2013-01-10 13:12:00,41.0,28.0,-100.00,SSW,211,5.0,13.0,61,-99.99,,,0.00,522.289978,,2013-01-10 21:12:00,
2013-01-10 13:33:00,41.0,27.0,-100.00,SW,232,3.0,9.0,58,-99.99,,,0.00,338.779999,,2013-01-10 21:33:00,
2013-01-10 13:42:00,41.0,27.0,-100.00,SW,232,3.0,9.0,58,-99.99,,,0.00,338.779999,,2013-01-10 21:42:00,
2013-01-10 13:53:00,41.0,27.0,-100.00,SW,232,3.0,9.0,58,-99.99,,,0.00,338.779999,,2013-01-10 21:53:00,
2013-01-10 14:03:00,41.0,27.0,-100.00,SW,232,3.0,9.0,58,-99.99,,,0.00,338.779999,,2013-01-10 22:03:00,
2013-01-10 14:12:00,41.0,27.0,-100.00,SW,232,3.0,9.0,58,-99.99,,,0.00,338.779999,,2013-01-10 22:12:00,
2013-01-10 14:43:00,42.0,27.0,-100.00,SW,228,3.0,9.0,54,-99.99,,,0.00,364.700012,,2013-01-10 22:43:00,
2013-01-10 15:12:00,42.0,27.0,-100.00,SW,228,3.0,9.0,54,-99.99,,,0.00,364.700012,,2013-01-10 23:12:00,
2013-01-10 15:42:00,39.0,26.0,-100.00,SSW,198,3.0,9.0,58,-99.99,,,0.00,105.879997,,2013-01-10 23:42:00,
2013-01-10 15:53:00,39.0,26.0,-100.00,SSW,198,3.0,9.0,58,-99.99,,,0.00,105.879997,,2013-01-10 23:53:00,
2013-01-10 16:02:00,39.0,26.0,-100.00,SSW,198,3.0,9.0,58,-99.99,,,0.00,105.879997,,2013-01-11 00:02:00,
2013-01-10 16:12:00,39.0,26.0,-100.00,SSW,198,3.0,9.0,58,-99.99,,,0.00,105.879997,,2013-01-11 00:12:00,
2013-01-10 16:42:00,37.0,27.0,-100.00,SW,215,5.0,11.0,65,-99.99,,,0.00,21.850000,,2013-01-11 00:42:00,
2013-01-10 16:53:00,37.0,27.0,-100.00,SW,215,5.0,11.0,65,-99.99,,,0.00,21.850000,,2013-01-11 00:53:00,
2013-01-10 17:02:00,37.0,27.0,-100.00,SW,215,5.0,11.0,65,-99.99,,,0.00,21.850000,,2013-01-11 01:02:00,
2013-01-10 17:12:00,37.0,27.0,-100.00,SW,215,5.0,11.0,65,-99.99,,,0.00,21.850000,,2013-01-11 01:12:00,
2013-01-10 17:43:00,36.0,27.0,-100.00,SSW,207,5.0,11.0,68,-99.99,,,0.00,0.120000,,2013-01-11 01:43:00,
2013-01-10 17:53:00,36.0,27.0,-100.00,SSW,207,5.0,11.0,68,-99.99,,,0.00,0.120000,,2013-01-11 01:53:00,
2013-01-10 18:02:00,36.0,27.0,-100.00,SSW,207,5.0,11.0,68,-99.99,,,0.00,0.120000,,2013-01-11 02:02:00,
2013-01-10 18:12:00,36.0,27.0,-100.00,SSW,207,5.0,11.0,68,-99.99,,,0.00,0.120000,,2013-01-11 02:12:00,
2013-01-10 18:43:00,36.0,27.0,-100.00,South,186,5.0,10.0,68,-99.99,,,0.00,0.000000,,2013-01-11 02:43:00,
2013-01-10 18:54:00,36.0,27.0,-100.00,South,186,5.0,10.0,68,-99.99,,,0.00,0.000000,,2013-01-11 02:54:00,
2013-01-10 19:02:00,36.0,27.0,-100.00,South,186,5.0,10.0,68,-99.99,,,0.00,0.000000,,2013-01-11 03:02:00,
2013-01-10 19:12:00,36.0,27.0,-100.00,South,186,5.0,10.0,68,-99.99,,,0.00,0.000000,,2013-01-11 03:12:00,
2013-01-10 19:33:00,35.0,26.0,-100.00,South,174,3.0,6.0,69,-99.99,,,0.00,0.000000,,2013-01-11 03:33:00,
2013-01-10 19:42:00,35.0,26.0,-100.00,South,174,3.0,6.0,69,-99.99,,,0.00,0.000000,,2013-01-11 03:42:00,
2013-01-10 19:53:00,35.0,26.0,-100.00,South,174,3.0,6.0,69,-99.99,,,0.00,0.000000,,2013-01-11 03:53:00,
2013-01-10 20:02:00,35.0,26.0,-100.00,South,174,3.0,6.0,69,-99.99,,,0.00,0.000000,,2013-01-11 04:02:00,
2013-01-10 20:12:00,35.0,26.0,-100.00,South,174,3.0,6.0,69,-99.99,,,0.00,0.000000,,2013-01-11 04:12:00,
2013-01-10 20:33:00,34.0,26.0,-100.00,South,189,2.0,4.0,72,-99.99,,,0.00,0.000000,,2013-01-11 04:33:00,
2013-01-10 20:42:00,34.0,26.0,-100.00,South,189,2.0,4.0,72,-99.99,,,0.00,0.000000,,2013-01-11 04:42:00,
2013-01-10 20:53:00,34.0,26.0,-100.00,South,189,2.0,4.0,72,-99.99,,,0.00,0.000000,,2013-01-11 04:53:00,
2013-01-10 21:03:00,34.0,26.0,-100.00,South,189,2.0,4.0,72,-99.99,,,0.00,0.000000,,2013-01-11 05:03:00,
2013-01-10 21:12:00,34.0,26.0,-100.00,South,189,2.0,4.0,72,-99.99,,,0.00,0.000000,,2013-01-11 05:12:00,
2013-01-10 21:33:00,33.0,28.0,-100.00,South,179,3.0,9.0,80,-99.99,,,0.00,0.000000,,2013-01-11 05:33:00,
2013-01-10 21:42:00,33.0,28.0,-100.00,South,179,3.0,9.0,80,-99.99,,,0.00,0.000000,,2013-01-11 05:42:00,
2013-01-10 21:53:00,33.0,28.0,-100.00,South,179,3.0,9.0,80,-99.99,,,0.00,0.000000,,2013-01-11 05:53:00,
2013-01-10 22:02:00,33.0,28.0,-100.00,South,179,3.0,9.0,80,-99.99,,,0.00,0.000000,,2013-01-11 06:02:00,
2013-01-10 22:12:00,33.0,28.0,-100.00,South,179,3.0,9.0,80,-99.99,,,0.00,0.000000,,2013-01-11 06:12:00,
2013-01-10 22:42:00,34.0,24.0,-100.00,South,184,1.0,4.0,68,-99.99,,,0.00,0.000000,,2013-01-11 06:42:00,
2013-01-10 22:52:00,34.0,24.0,-100.00,South,184,1.0,4.0,68,-99.99,,,0.00,0.000000,,2013-01-11 06:52:00,
2013-01-10 23:02:00,34.0,24.0,-100.00,South,184,1.0,4.0,68,-99.99,,,0.00,0.000000,,2013-01-11 07:02:00,
2013-01-10 23:11:00,34.0,24.0,-100.00,South,184,1.0,4.0,68,-99.99,,,0.00,0.000000,,2013-01-11 07:11:00,
2013-01-10 23:42:00,31.0,25.0,-100.00,SSW,204,3.0,7.0,76,-99.99,,,0.00,0.000000,,2013-01-11 07:42:00,
2013-01-10 23:52:00,31.0,25.0,-100.00,SSW,204,3.0,7.0,76,-99.99,,,0.00,0.000000,,2013-01-11 07:52:00,